Tracking 34800 objects as of 17-Jul-2026
HD Live streaming from Space Station
objects crossing your sky now

BREEZE-M DEB

Track BREEZE-M DEB now!
10-day predictions


NORAD ID: 34224
Int'l Code: 2006-006AP
Perigee: 559.0 km
Apogee: 14,187.5 km
Inclination: 52.2 °
Period: 267.3 minutes
Semi major axis: 13744 km
RCS: 0.066 m2 (small)
Launch date: February 28, 2006
Source: Commonwealth of Independent States (former USSR) (CIS)
Launch site: TYURATAM MISSILE AND SPACE COMPLEX (TTMTR)

Note: This is SATELLITE DEBRIS
Your satellite tracking list
Your tracking list is empty




NASA's NSSDC Master Catalog

Two Line Element Set (TLE):
1 34224U 06006AP  26197.40023341  .00000566  00000-0  13647-2 0  9999
2 34224  52.1508 240.6619 4957922 193.6617 145.5532  5.38792644  5263
Source of the keplerian elements: AFSPC